Ludington, MI

9:25 PM EST on December 15, 2019 (GMT -0500)
Mason County

Weather History for KLDM - November, 2019

Change the Weather History Date:

Friday, November 22, 2019

  Actual Average Record
Temperature  
Mean Temperature 32 °F -  
Max Temperature 34 °F 42 °F 63 °F (1990)
Min Temperature 30 °F 28 °F 12 °F (2008)
Degree Days  
Heating Degree Days 32    
Moisture  
Dew Point 24 °F    
Average Humidity 71    
Maximum Humidity 85    
Minimum Humidity 62    
Precipitation  
Precipitation 0.00 in - - ()
Sea Level Pressure  
Sea Level Pressure 30.08 in    
Wind  
Wind Speed 9 mph ()    
Max Wind Speed 16 mph    
Max Gust Speed 28 mph    
Visibility 9.9 miles    
Events Snow    
Averages and records for this station are not official NWS values.
T = Trace of Precipitation, MM = Missing Value Source: Averaged Metar Reports

Daily Weather History Graph

Daily Weather History Graph

Search for Another Location

Airport or City:

Astronomy

Nov. 22, 2019 Rise Set
Actual Time 7:49 AM EST 5:13 PM EST
Civil Twilight 7:17 AM EST 5:45 PM EST
Nautical Twilight 6:42 AM EST 6:20 PM EST
Astronomical Twilight 6:07 AM EST 6:55 PM EST
Moon 2:41 AM EST (11/22) 3:25 PM EST (11/22)
Length of Visible Light 10h 28m
Length of Day
9h 24m
Waning Crescent, 20% of the Moon is Illuminated
Nov 22
Waning Crescent
Nov 26
New
Dec 4
First Quarter
Dec 12
Full
Dec 18
Last Quarter

Hourly Weather History & Observations

Time (EST) Temp. Windchill Dew Point Humidity Pressure Visibility Wind Dir Wind Speed Gust Speed Precip Events Conditions
12:15 AM 35.2 °F 27.1 °F 27.5 °F 73% 29.93 in 10.0 mi NNW 11.5 mph 24.2 mph N/A   Overcast
12:16 AM 35.2 °F 26.6 °F 27.7 °F 74% 29.93 in 10.0 mi NNW 12.7 mph 24.2 mph N/A   Overcast
12:56 AM 34.7 °F 27.5 °F 28.6 °F 78% 29.94 in 10.0 mi NNW 9.2 mph 19.6 mph N/A Snow Light Snow
1:15 AM 34.7 °F 28.1 °F 29.1 °F 80% 29.95 in 10.0 mi NNW 8.1 mph 21.9 mph N/A Snow Light Snow
1:16 AM 34.7 °F 28.8 °F 29.3 °F 81% 29.95 in 10.0 mi NNW 6.9 mph 21.9 mph N/A Snow Light Snow
1:35 AM 34.2 °F 27.5 °F 30.2 °F 85% 29.95 in 7.0 mi NNW 8.1 mph 17.3 mph N/A Snow Light Snow
1:36 AM 34.2 °F 26.2 °F 30.2 °F 85% 29.95 in 7.0 mi NNW 10.4 mph 17.3 mph N/A Snow Light Snow
1:55 AM 34.2 °F 24.8 °F 27.3 °F 76% 29.96 in 10.0 mi NW 13.8 mph 20.7 mph N/A   Overcast
2:15 AM 33.8 °F 23.9 °F 25.0 °F 70% 29.97 in 10.0 mi NW 15.0 mph 21.9 mph N/A   Overcast
2:16 AM 33.8 °F 24.3 °F 24.8 °F 70% 29.97 in 10.0 mi NW 13.8 mph 21.9 mph N/A   Overcast
2:35 AM 33.3 °F 22.8 °F 23.4 °F 67% 29.99 in 10.0 mi NW 16.1 mph 27.6 mph N/A   Overcast
2:55 AM 33.1 °F 23.9 °F 23.7 °F 68% 30.01 in 10.0 mi NNW 12.7 mph 25.3 mph N/A   Overcast
3:15 AM 32.4 °F 24.0 °F 23.5 °F 70% 30.02 in 10.0 mi NW 10.4 mph 20.7 mph N/A   Overcast
3:35 AM 32.0 °F 22.5 °F 23.0 °F 69% 30.02 in 10.0 mi NNW 12.7 mph 19.6 mph N/A   Overcast
3:55 AM 32.0 °F 23.6 °F 23.5 °F 71% 30.02 in 10.0 mi NNW 10.4 mph 19.6 mph N/A   Overcast
4:15 AM 32.0 °F 24.8 °F 23.2 °F 70% 30.03 in 10.0 mi NW 8.1 mph 18.4 mph N/A   Overcast
4:35 AM 32.0 °F 23.6 °F 22.3 °F 67% 30.03 in 10.0 mi NNW 10.4 mph 18.4 mph N/A   Overcast
4:36 AM 32.0 °F 23.0 °F 22.3 °F 67% 30.03 in 10.0 mi NNW 11.5 mph 21.9 mph N/A   Overcast
4:55 AM 32.0 °F 22.1 °F 21.2 °F 64% 30.04 in 10.0 mi NNW 13.8 mph 23.0 mph N/A   Overcast
5:15 AM 32.0 °F 24.8 °F 22.1 °F 67% 30.04 in 10.0 mi NNW 8.1 mph 20.7 mph N/A   Overcast
5:35 AM 32.0 °F 21.6 °F 21.2 °F 64% 30.06 in 10.0 mi NNW 15.0 mph 21.9 mph N/A   Overcast
5:36 AM 32.0 °F 21.6 °F 21.2 °F 64% 30.06 in 10.0 mi NNW 15.0 mph 21.9 mph N/A   Overcast
5:55 AM 31.6 °F 22.6 °F 21.4 °F 66% 30.06 in 10.0 mi NNW 11.5 mph 23.0 mph N/A   Overcast
6:15 AM 31.6 °F 24.4 °F 21.4 °F 66% 30.07 in 10.0 mi North 8.1 mph 17.3 mph N/A   Overcast
6:55 AM 32.0 °F 23.6 °F 21.9 °F 66% 30.06 in 10.0 mi NNW 10.4 mph - N/A   Overcast
7:16 AM 31.8 °F 23.9 °F 20.3 °F 62% 30.07 in 10.0 mi NNW 9.2 mph 16.1 mph N/A   Overcast
7:35 AM 31.5 °F 24.2 °F 20.1 °F 63% 30.07 in 10.0 mi NNW 8.1 mph 16.1 mph N/A   Overcast
7:55 AM 31.6 °F 23.1 °F 20.3 °F 63% 30.08 in 10.0 mi NNW 10.4 mph 17.3 mph N/A   Overcast
8:15 AM 31.6 °F 23.7 °F 21.2 °F 65% 30.10 in 10.0 mi NNW 9.2 mph 19.6 mph N/A   Overcast
8:35 AM 31.1 °F 22.4 °F 20.7 °F 65% 30.11 in 10.0 mi North 10.4 mph 20.7 mph N/A   Overcast
8:55 AM 31.5 °F 21.8 °F 21.7 °F 67% 30.12 in 10.0 mi NNW 12.7 mph 18.4 mph N/A   Overcast
9:15 AM 31.6 °F 22.6 °F 21.0 °F 65% 30.13 in 10.0 mi North 11.5 mph 17.3 mph N/A   Overcast
9:35 AM 31.8 °F 23.9 °F 21.6 °F 66% 30.13 in 10.0 mi North 9.2 mph - N/A   Overcast
9:55 AM 32.0 °F 24.2 °F 21.2 °F 64% 30.14 in 10.0 mi North 9.2 mph - N/A   Overcast
10:15 AM 32.0 °F 23.6 °F 21.2 °F 64% 30.15 in 10.0 mi NW 10.4 mph - N/A   Overcast
10:35 AM 32.0 °F 24.8 °F 22.1 °F 67% 30.15 in 10.0 mi NNW 8.1 mph - N/A   Overcast
10:36 AM 32.0 °F 24.8 °F 22.3 °F 67% 30.15 in 10.0 mi NNW 8.1 mph - N/A   Overcast
10:55 AM 32.0 °F 24.2 °F 22.1 °F 67% 30.15 in 10.0 mi NNW 9.2 mph - N/A   Overcast
10:56 AM 32.0 °F 24.2 °F 22.1 °F 67% 30.15 in 10.0 mi NW 9.2 mph - N/A   Overcast
11:15 AM 32.0 °F 24.2 °F 21.9 °F 66% 30.16 in 10.0 mi North 9.2 mph - N/A   Overcast
11:16 AM 32.0 °F 23.6 °F 21.9 °F 66% 30.16 in 10.0 mi North 10.4 mph - N/A   Overcast
11:35 AM 32.0 °F 24.8 °F 21.6 °F 65% 30.16 in 10.0 mi NW 8.1 mph - N/A   Overcast
11:55 AM 32.0 °F 26.4 °F 21.9 °F 66% 30.16 in 10.0 mi NNW 5.8 mph - N/A   Overcast
11:56 AM 32.0 °F 25.6 °F 22.1 °F 67% 30.16 in 10.0 mi NNW 6.9 mph - N/A   Overcast
12:15 PM 32.0 °F 24.2 °F 22.1 °F 67% 30.16 in 10.0 mi NW 9.2 mph - N/A   Overcast
12:35 PM 32.0 °F 25.6 °F 21.9 °F 66% 30.15 in 10.0 mi NNW 6.9 mph - N/A   Overcast
12:55 PM 32.2 °F 25.8 °F 21.2 °F 64% 30.15 in 10.0 mi NNW 6.9 mph - N/A   Overcast
1:15 PM 32.2 °F 25.8 °F 21.0 °F 63% 30.15 in 10.0 mi North 6.9 mph - N/A   Overcast
1:55 PM 32.2 °F 28.9 °F 20.3 °F 62% 30.14 in 10.0 mi West 3.5 mph - N/A   Overcast
2:15 PM 32.4 °F 26.0 °F 21.7 °F 65% 30.12 in 10.0 mi NNW 6.9 mph - N/A   Overcast
2:35 PM 32.0 °F 27.5 °F 21.0 °F 64% 30.13 in 10.0 mi West 4.6 mph - N/A   Overcast
2:55 PM 32.2 °F 26.7 °F 21.6 °F 65% 30.13 in 10.0 mi West 5.8 mph - N/A   Overcast
2:56 PM 32.2 °F 26.7 °F 21.7 °F 65% 30.13 in 10.0 mi WSW 5.8 mph - N/A   Overcast
3:15 PM 32.7 °F 26.4 °F 21.6 °F 64% 30.12 in 10.0 mi WSW 6.9 mph - N/A   Overcast
3:16 PM 32.7 °F 27.3 °F 21.6 °F 64% 30.12 in 10.0 mi West 5.8 mph - N/A   Overcast
3:35 PM 32.0 °F 27.5 °F 21.2 °F 64% 30.12 in 10.0 mi WNW 4.6 mph - N/A   Mostly Cloudy
3:55 PM 32.0 °F 28.7 °F 21.9 °F 66% 30.12 in 10.0 mi West 3.5 mph - N/A   Mostly Cloudy
4:15 PM 32.0 °F 25.6 °F 23.0 °F 69% 30.12 in 10.0 mi West 6.9 mph - N/A   Overcast
4:16 PM 32.0 °F 25.6 °F 23.2 °F 70% 30.12 in 10.0 mi WSW 6.9 mph - N/A   Overcast
4:35 PM 32.0 °F 27.5 °F 23.0 °F 69% 30.12 in 10.0 mi West 4.6 mph - N/A   Overcast
4:55 PM 31.5 °F 24.9 °F 22.8 °F 70% 30.12 in 10.0 mi West 6.9 mph - N/A   Overcast
5:15 PM 31.1 °F 26.4 °F 22.3 °F 70% 30.12 in 10.0 mi WSW 4.6 mph - N/A   Overcast
5:35 PM 30.0 °F 26.5 °F 23.0 °F 75% 30.12 in 10.0 mi West 3.5 mph - N/A   Mostly Cloudy
5:55 PM 30.6 °F 24.7 °F 23.7 °F 76% 30.12 in 10.0 mi WSW 5.8 mph - N/A   Mostly Cloudy
6:15 PM 30.7 °F 27.3 °F 24.3 °F 77% 30.12 in 10.0 mi WSW 3.5 mph - N/A   Overcast
6:35 PM 31.1 °F 24.5 °F 24.3 °F 76% 30.12 in 10.0 mi WSW 6.9 mph - N/A   Overcast
6:55 PM 31.6 °F 25.1 °F 24.1 °F 74% 30.11 in 10.0 mi WSW 6.9 mph - N/A   Overcast
7:15 PM 31.6 °F 25.1 °F 24.3 °F 74% 30.10 in 10.0 mi WSW 6.9 mph - N/A   Overcast
7:35 PM 31.1 °F 23.7 °F 24.6 °F 77% 30.09 in 10.0 mi WSW 8.1 mph - N/A   Mostly Cloudy
8:15 PM 30.9 °F 23.5 °F 24.8 °F 78% 30.08 in 10.0 mi WSW 8.1 mph - N/A   Mostly Cloudy
8:35 PM 31.1 °F 23.7 °F 25.3 °F 79% 30.07 in 10.0 mi WSW 8.1 mph - N/A   Scattered Clouds
8:36 PM 31.1 °F 23.1 °F 25.3 °F 79% 30.07 in 10.0 mi WSW 9.2 mph - N/A   Scattered Clouds
8:55 PM 31.1 °F 24.5 °F 25.5 °F 80% 30.06 in 10.0 mi WSW 6.9 mph - N/A   Scattered Clouds
9:15 PM 30.9 °F 23.5 °F 25.5 °F 80% 30.06 in 10.0 mi WSW 8.1 mph - N/A   Scattered Clouds
9:35 PM 31.1 °F 26.4 °F 25.7 °F 80% 30.05 in 10.0 mi WSW 4.6 mph - N/A   Scattered Clouds
9:36 PM 31.1 °F 25.4 °F 25.7 °F 80% 30.05 in 10.0 mi WSW 5.8 mph - N/A   Scattered Clouds
9:55 PM 31.8 °F 24.6 °F 26.6 °F 81% 30.04 in 10.0 mi WSW 8.1 mph - N/A   Mostly Cloudy
10:15 PM 31.1 °F 25.4 °F 26.2 °F 82% 30.03 in 10.0 mi WSW 5.8 mph - N/A   Scattered Clouds
10:35 PM 32.0 °F 25.6 °F 26.6 °F 80% 30.03 in 10.0 mi SW 6.9 mph - N/A   Scattered Clouds
10:55 PM 32.4 °F 26.0 °F 27.3 °F 82% 30.02 in 10.0 mi SW 6.9 mph - N/A   Mostly Cloudy
10:56 PM 32.4 °F 26.0 °F 27.3 °F 82% 30.02 in 10.0 mi SW 6.9 mph - N/A   Mostly Cloudy
11:15 PM 33.3 °F 25.7 °F 27.9 °F 81% 30.02 in 10.0 mi SW 9.2 mph - N/A   Mostly Cloudy
11:36 PM 33.6 °F 25.0 °F 28.2 °F 81% 30.02 in 10.0 mi SW 11.5 mph - N/A   Mostly Cloudy